Location: *
(43.0167°S, 179.9000°E)
Time: 12:02:01
(UTC+00:00)

USA 215 - Pass Details

Date: 12 August 2024
Orbit: 1102 x 1105 km, 123.0° (Epoch: 04 September)

Event Time Altitude Azimuth Distance (km) Brightness Sun altitude
Rises 18:20:49 0° 132° (SE) 3,955 6.7 -7.2°
Reaches altitude 10° 18:23:22 10° 137° (SE) 2,994 6.0 -6.7°
Maximum altitude 18:29:42 51° 209° (SSW) 1,387 3.6 -5.6°
Drops below altitude 10° 18:36:01 10° 282° (WNW) 2,978 5.0 -4.5°
Sets 18:38:34 0° 287° (WNW) 3,932 5.6 -4.0°
